Location: Untermarchtal
(48.2403°N, 9.6117°E)
Time: 21:14:59
(UTC+01:00)

ISS - Pass Details

Date: 13 January 2018
Orbit: 402 x 407 km, 51.6° (Epoch: 23 January)

Event Time Altitude Azimuth Distance (km) Brightness Sun altitude
Exits shadow 05:33:29 29° 115° (ESE) 770 -1.9 -25.1°
Drops below altitude 10° 05:35:15 10° 114° (ESE) 1,464 -0.1 -24.9°
Sets 05:37:20 0° 115° (ESE) 2,323 1.2 -24.5°
